Simultaneous Nadir Overpasses (SNOs) Predictions

Prediction of SNOs between NOAA-19 and TERRA Satellite Orbit:

Table of predicted SNOs for the next 14.0 days since TLE Epoch: 3/26/2022
Index Date (NOAA-19) Time (NOAA-19) Lat,Lon (NOAA-19) SZA (NOAA-19 ) Date (TERRA) Time (TERRA) Lat,Lon (TERRA) SZA (TERRA ) Distance(km) Time Diff (sec)
1 03/27/2022 17:33:54 -80.70, 132.27 100.49 03/27/2022 17:33:41 -80.70, 132.27 100.50 0.14 13
2 03/29/2022 23:06:52 80.70,-131.04 78.66 03/29/2022 23:07:19 80.72,-130.90 78.70 3.27 27
3 03/29/2022 23:57:55 -80.70, 36.25 101.35 03/29/2022 23:56:47 -80.69, 36.36 101.38 2.51 68
4 04/01/2022 04:39:57 -80.72, -34.68 102.21 04/01/2022 04:40:59 -80.70, -34.52 102.19 3.12 62
5 04/01/2022 05:30:52 80.70, 133.09 77.81 04/01/2022 05:30:25 80.70, 133.12 77.81 0.59 27
6 04/03/2022 11:03:56 -80.70,-130.05 103.02 04/03/2022 11:04:04 -80.71,-130.21 103.02 3.29 8
7 04/05/2022 16:36:53 80.71, -33.58 76.14 04/05/2022 16:37:42 80.72, -33.60 76.16 0.59 49
8 04/05/2022 17:27:57 -80.70, 133.83 103.87 04/05/2022 17:27:10 -80.69, 133.72 103.91 2.80 47



Historial Predications of SNOs between NOAA-19 and TERRA
